Flight Track Log - Related Links

Times and Time Zones

All times are in EDT time to prevent confusion due to time zone crossing. See the N567MC flight status page for this flight to view local times or setup timezone preferences in your user account.

Time Position Orientation Groundspeed Altitude Reporting Facility
EDT Latitude Longitude Course Direction KTS MPH feet Rate Location/Type
Sat 05:57:48 PM 25.0044 -77.4283 310° West 215 247 2,900  Level Miami Center
Sat 05:58:50 PM 24.9631 -77.4697 222° Southwest 245 282 6,500 3,532 Climbing Miami Center
Sat 05:59:52 PM 25.0181 -77.5428 310° West 274 315 10,200 3,387 Climbing Miami Center
Sat 06:00:54 PM 25.0769 -77.6017 318° Northwest 279 321 13,500 2,855 Climbing Miami Center
Sat 06:01:56 PM 25.1386 -77.6647 317° Northwest 295 339 16,100 2,516 Climbing Miami Center
Sat 06:02:58 PM 25.2089 -77.7364 317° Northwest 310 357 18,700 2,468 Climbing Miami Center
Sat 06:03:00 PM 25.2323 -77.7374 310° West  Level FlightAware
Sat 06:04:00 PM 25.2747 -77.8042 317° Northwest 319 367 21,200  Level Miami Center
Sat 06:05:02 PM 25.3442 -77.8783 316° Northwest 345 397 22,000 387 Climbing Miami Center
Sat 06:06:04 PM 25.4125 -77.9742 308° West 392 451 22,000  Level Miami Center
Sat 06:07:06 PM 25.4958 -78.0806 311° West 413 475 22,000  Level Miami Center
Sat 06:08:08 PM 25.5639 -78.1831 306° West 412 474 22,000  Level Miami Center
Sat 06:09:09 PM 25.6344 -78.2800 309° West 405 466 22,000  Level Miami Center
Sat 06:10:11 PM 25.7122 -78.3881 309° West 405 466 22,000  Level Miami Center
Sat 06:11:13 PM 25.7767 -78.4894 305° West 405 466 22,000  Level Miami Center
Sat 06:12:15 PM 25.8358 -78.5953 302° West 404 465 22,000 -435 Level Miami Center
Sat 06:13:17 PM 25.9011 -78.7111 302° West 403 464 21,100 -968 Descending Miami Center
Sat 06:14:19 PM 25.9636 -78.8172 303° West 411 473 20,000 -532 Descending Miami Center
Sat 06:15:21 PM 26.0133 -78.9061 302° West 398 458 20,000 -1,113 Level Miami Center
Sat 06:16:23 PM 26.0825 -79.0261 303° West 390 449 17,700 -2,468 Descending Miami Center
Sat 06:17:25 PM 26.1392 -79.1256 302° West 383 441 14,900 -2,661 Descending Miami Center
Sat 06:18:27 PM 26.1931 -79.2219 302° West 373 429 12,200 -2,516 Descending Miami Center
Sat 06:19:29 PM 26.2472 -79.3156 303° West 362 417 9,700 -2,390 Descending Miami Center
Sat 06:20:30 PM 26.3003 -79.4089 302° West 309 356 7,300 -2,195 Descending Miami Center
Sat 06:21:32 PM 26.3431 -79.4847 302° West 293 337 5,200 -1,113 Descending Miami Center
Sat 06:22:34 PM 26.3844 -79.5581 302° West 284 327 5,000 -97 Descending Miami Center
Sat 06:23:36 PM 26.4281 -79.6364 302° West 278 320 5,000  Level Miami Center
Sat 06:24:38 PM 26.4686 -79.7086 302° West 279 321 5,000  Level Miami Center
Sat 06:25:40 PM 26.5128 -79.7869 302° West 275 316 5,000  Level Miami Center
Sat 06:26:41 PM 26.5536 -79.8600 302° West 278 320 5,000 -390 Level Miami Center
Sat 06:27:43 PM 26.5808 -79.9383 291° West 272 313 4,200 -484 Descending Miami Center
Sat 06:28:45 PM 26.6042 -80.0242 287° West 270 311 4,000 -435 Descending Miami Center
Sat 06:29:47 PM 26.6147 -80.1011 279° West 247 284 3,300 -629 Descending Miami Center
Sat 06:30:49 PM 26.6247 -80.1694 279° West 211 243 2,700 -387 Descending Miami Center
Sat 06:31:51 PM 26.6331 -80.2242 280° West 188 216 2,500 -341 Descending Miami Center
Sat 06:32:52 PM 26.6403 -80.2803 278° West 182 209 2,000 -244 Descending Miami Center
Sat 06:33:54 PM 26.6711 -80.2964 335° Northwest 176 203 2,000  Level Miami Center
Sat 06:34:56 PM 26.6883 -80.2450 69° East 176 203 2,000 -242 Level Miami Center
Sat 06:35:58 PM 26.6867 -80.1967 92° East 158 182 1,500 -488 Descending Miami Center
Sat 06:36:59 PM 26.6844 -80.1508 93° East 158 182 1,000 -492 Descending Miami Center
Sat 06:38:00 PM 26.6832 -80.0956 North  Level Estimated
Sat 06:45:00 PM 26.6832 -80.0956 North  Level Estimated

Login

Don't have an account? Register now (free) for customized features, flight alerts, and more!